Regional Weather Roundup
Issued by NWS Spokane, WA

Home | Current Version | Previous Version | Text Only | Print | Product List | Glossary On
Versions: 1 2 3 4 5 6 7 8 9 10 11 12 13 14 15 16 17 18 19 20 21 22 23 24 25 26 27 28 29 30 31 32 33 34 35 36 37 38 39 40 41 42 43 44 45 46 47 48 49 50
000
NZUS01 KOTX 021710
RWROTX
EASTERN WASHINGTON/NORTHERN IDAHO ROUNDUP
NATIONAL WEATHER SERVICE, SPOKANE WA
1000 AM PDT THU JUL 02 2015

Note: "fair" indicated few or no clouds below 12,000 feet with no
significant weather and/or obstructions to visibility.

...NORTHEAST WASHINGTON AND NORTHERN IDAHO PANHANDLE...

CITY           SKY/WX    TMP DP  RH WIND       PRES   REMARKS
SPOKANE INTL   SUNNY     82  50  32 NE7       30.05S
SPOKANE DOWNTO SUNNY     83  53  35 CALM      30.03F
COEUR D ALENE  SUNNY     82  55  39 NE12      30.04S
DEER PARK      SUNNY     84  52  33 NE9       30.04F
BONNERS FERRY  FAIR      75  57  53 S3        30.07F

...SOUTHEAST WASHINGTON AND SOUTHERN IDAHO PANHANDLE...

CITY           SKY/WX    TMP DP  RH WIND       PRES   REMARKS
WALLA WALLA    SUNNY     84  47  27 SW9       29.98S
PULLMAN/MOSCOW SUNNY     84  49  29 CALM      30.06S
LEWISTON       SUNNY     84  50  30 VRB5      29.98F
LOWELL           N/A     78  50  37 CALM      30.02F

...COLUMBIA BASIN...

CITY           SKY/WX    TMP DP  RH WIND       PRES   REMARKS
EPHRATA        SUNNY     91  48  22 VRB3      29.97F
MOSES LAKE     SUNNY     91  49  23 N9        29.98F
TRI CITIES     SUNNY     86  59  39 NW6       29.94F
HERMISTON      SUNNY     86  48  26 SE3       29.94F
PENDLETON      SUNNY     88  42  20 NE5       29.98F

...EAST SLOPES CASCADES...

CITY           SKY/WX    TMP DP  RH WIND       PRES   REMARKS
THE DALLES     SUNNY     85  57  38 NW9       29.92F
YAKIMA         SUNNY     90  53  28 NW7       29.98F
ELLENSBURG     SUNNY     83  54  36 VRB3      30.02F
WENATCHEE      SUNNY     84  50  30 W6        29.99F
OMAK           SUNNY     84  50  30 N15       30.01F

...SOUTHERN BRITISH COLUMBIA...

CITY           SKY/WX    TMP DP  RH WIND       PRES   REMARKS
PENTICTON      SUNNY     79  55  44 N9        30.04F
CASTLEGAR      MOSUNNY   77  55  47 NW7       30.04F
CRANBROOK      MOSUNNY   77  52  41 NE3       30.13F

...WESTERN MONTANA...

CITY           SKY/WX    TMP DP  RH WIND       PRES   REMARKS
MISSOULA       SUNNY     80  51  36 SE7       30.12F

...NEIGHBORING CITIES...

CITY           SKY/WX    TMP DP  RH WIND       PRES   REMARKS
SEATTLE        SUNNY     80  54  40 N6        30.04S
CALGARY        MOSUNNY   72  54  53 S5        30.17F



USA.gov is the U.S. government's official web portal to all federal, state and local government web resources and services.